| time (UTC) | temp F | wind direction | speed knots | gust knots | rain 1hr in | rain 24hr in | rain mn in | humidity % | barometer mb |
| 20260505124514 | 51 | 25 | 0.0 | 0.0 | 0.00 | 0.03 | 0.00 | 96 | 1009.2 |
| 20260505123013 | 51 | 25 | 0.0 | 0.0 | 0.00 | 0.03 | 0.00 | 96 | 1009.3 |
| 20260505121514 | 51 | 25 | 0.0 | 0.0 | 0.00 | 0.03 | 0.00 | 96 | 1009.1 |
| 20260505120011 | 52 | 25 | 0.0 | 0.0 | 0.00 | 0.03 | 0.00 | 96 | 1009.2 |
| 20260505114514 | 52 | 25 | 0.0 | 0.0 | 0.00 | 0.03 | 0.00 | 96 | 1009.2 |
| 20260505113016 | 52 | 25 | 0.0 | 0.0 | 0.00 | 0.03 | 0.00 | 96 | 1009.2 |
| 20260505111510 | 52 | 25 | 0.0 | 0.0 | 0.00 | 0.03 | 0.00 | 96 | 1009.2 |
| 20260505101508 | 52 | 25 | 0.0 | 0.0 | 0.00 | 0.03 | 0.00 | 96 | 1009.2 |
| 20260505100007 | 52 | 345 | 0.0 | 0.0 | 0.00 | 0.03 | 0.00 | 95 | 1009.2 |
| 20260505094505 | 52 | 345 | 0.0 | 0.0 | 0.00 | 0.03 | 0.00 | 95 | 1009.1 |
| 20260505093004 | 52 | 345 | 0.0 | 0.0 | 0.00 | 0.03 | 0.00 | 95 | 1009.3 |
| 20260505091500 | 52 | 345 | 0.0 | 0.0 | 0.00 | 0.03 | 0.00 | 95 | 1009.8 |
| 20260505090107 | 52 | 9 | 0.0 | 0.0 | 0.00 | 0.03 | 0.00 | 95 | 1010.0 |
| 20260505084600 | 52 | 340 | 0.0 | 0.0 | 0.00 | 0.03 | 0.00 | 95 | 1010.0 |
| 20260505083103 | 52 | 339 | 0.0 | 0.0 | 0.00 | 0.03 | 0.00 | 95 | 1009.8 |
| 20260505081602 | 52 | 339 | 0.0 | 0.0 | 0.00 | 0.03 | 0.00 | 95 | 1010.0 |
| 20260505080057 | 52 | 339 | 0.0 | 0.0 | 0.00 | 0.03 | 0.00 | 95 | 1010.3 |
| 20260505074555 | 52 | 339 | 0.0 | 0.0 | 0.00 | 0.03 | 0.00 | 95 | 1010.0 |
| 20260505073058 | 52 | 251 | 0.0 | 0.0 | 0.00 | 0.03 | 0.00 | 95 | 1010.2 |
| 20260505071555 | 52 | 251 | 0.0 | 0.0 | 0.00 | 0.03 | 0.00 | 95 | 1010.2 |
| 20260505070052 | 52 | 251 | 0.0 | 0.0 | 0.00 | 0.03 | 0.00 | 95 | 1010.4 |
| 20260505064550 | 52 | 251 | 0.0 | 0.0 | 0.00 | 0.03 | 0.03 | 95 | 1010.3 |
| 20260505063050 | 52 | 251 | 0.0 | 0.0 | 0.00 | 0.03 | 0.03 | 95 | 1010.3 |
| 20260505061550 | 52 | 251 | 0.0 | 0.0 | 0.00 | 0.03 | 0.03 | 95 | 1010.5 |
| 20260505060049 | 52 | 251 | 0.0 | 0.0 | 0.00 | 0.03 | 0.03 | 94 | 1010.7 |
| 20260505054549 | 52 | 251 | 0.0 | 0.0 | 0.00 | 0.03 | 0.03 | 94 | 1010.7 |
| 20260505053050 | 52 | 251 | 0.0 | 0.0 | 0.00 | 0.03 | 0.03 | 94 | 1010.7 |
| 20260505051548 | 52 | 251 | 0.0 | 0.0 | 0.00 | 0.03 | 0.03 | 94 | 1010.5 |
| 20260505041545 | 52 | 257 | 0.0 | 0.0 | 0.00 | 0.03 | 0.03 | 93 | 1010.4 |
| 20260505040045 | 52 | 283 | 0.0 | 0.0 | 0.00 | 0.03 | 0.03 | 93 | 1010.3 |
| 20260505034544 | 53 | 239 | 0.0 | 0.0 | 0.00 | 0.03 | 0.03 | 92 | 1010.1 |
| 20260505033105 | 53 | 260 | 0.0 | 0.0 | 0.00 | 0.03 | 0.03 | 92 | 1010.0 |
| 20260505031542 | 53 | 252 | 0.0 | 0.0 | 0.00 | 0.03 | 0.03 | 91 | 1009.9 |
| 20260505030043 | 53 | 204 | 0.0 | 0.0 | 0.00 | 0.03 | 0.03 | 91 | 1009.9 |
| 20260505024542 | 54 | 222 | 0.0 | 0.0 | 0.00 | 0.03 | 0.03 | 91 | 1010.0 |
| 20260505023049 | 54 | 239 | 0.0 | 0.0 | 0.00 | 0.03 | 0.03 | 90 | 1009.9 |
| 20260505021540 | 54 | 270 | 0.0 | 0.0 | 0.00 | 0.03 | 0.03 | 90 | 1010.0 |
| 20260505020046 | 55 | 306 | 0.0 | 0.0 | 0.00 | 0.03 | 0.03 | 89 | 1010.0 |
| 20260505014540 | 55 | 27 | 0.0 | 0.0 | 0.00 | 0.00 | 0.03 | 90 | 1010.0 |
| 20260505013039 | 55 | 276 | 0.0 | 0.0 | 0.00 | 0.03 | 0.03 | 89 | 1010.0 |
| 20260505011539 | 55 | 257 | 0.0 | 4.3 | 0.00 | 0.03 | 0.03 | 90 | 1010.0 |
| 20260505010042 | 55 | 298 | 0.0 | 0.0 | 0.00 | 0.03 | 0.03 | 90 | 1010.0 |
| 20260505004545 | 56 | 186 | 0.0 | 0.0 | 0.00 | 0.03 | 0.03 | 90 | 1009.8 |
| 20260505003039 | 56 | 219 | 0.0 | 0.0 | 0.00 | 0.03 | 0.03 | 90 | 1009.8 |
| 20260505001537 | 56 | 252 | 0.0 | 0.9 | 0.00 | 0.03 | 0.03 | 91 | 1009.7 |
| 20260505000037 | 56 | 226 | 0.0 | 0.0 | 0.00 | 0.03 | 0.03 | 91 | 1009.8 |
| 20260504234553 | 56 | 269 | 0.0 | 0.0 | 0.00 | 0.03 | 0.03 | 92 | 1009.8 |
| 20260504233036 | 56 | 228 | 0.0 | 0.0 | 0.00 | 0.03 | 0.03 | 92 | 1009.8 |
| 20260504231545 | 56 | 179 | 0.0 | 0.0 | 0.00 | 0.03 | 0.03 | 93 | 1009.8 |
| 20260504230034 | 56 | 284 | 0.0 | 0.0 | 0.00 | 0.03 | 0.03 | 94 | 1010.0 |
| 20260504224532 | 55 | 269 | 0.0 | 1.7 | 0.00 | 0.03 | 0.03 | 94 | 1010.2 |
| 20260504223032 | 55 | 49 | 0.0 | 0.0 | 0.00 | 0.03 | 0.03 | 93 | 1010.3 |
| 20260504221532 | 55 | 265 | 0.0 | 4.3 | 0.00 | 0.03 | 0.03 | 93 | 1010.4 |
| 20260504220031 | 55 | 197 | 0.9 | 4.3 | 0.00 | 0.03 | 0.03 | 94 | 1010.5 |
| 20260504214537 | 55 | 309 | 0.0 | 0.0 | 0.00 | 0.03 | 0.03 | 93 | 1010.7 |
| 20260504213031 | 56 | 326 | 0.0 | 0.0 | 0.00 | 0.03 | 0.03 | 94 | 1010.5 |
| 20260504211529 | 56 | 240 | 0.0 | 0.0 | 0.00 | 0.03 | 0.03 | 93 | 1010.5 |
| 20260504210028 | 57 | 207 | 0.0 | 1.7 | 0.00 | 0.03 | 0.03 | 95 | 1010.4 |
| 20260504204551 | 56 | 263 | 0.0 | 2.6 | 0.00 | 0.03 | 0.03 | 95 | 1010.4 |
| 20260504203028 | 56 | 63 | 0.0 | 0.0 | 0.01 | 0.03 | 0.03 | 96 | 1010.4 |
| 20260504201524 | 56 | 194 | 0.0 | 0.0 | 0.01 | 0.03 | 0.03 | 96 | 1010.3 |
| 20260504200028 | 55 | 200 | 0.0 | 0.0 | 0.01 | 0.03 | 0.03 | 96 | 1010.4 |
| 20260504194520 | 54 | 159 | 0.0 | 0.0 | 0.01 | 0.03 | 0.03 | 96 | 1010.5 |
| 20260504193022 | 53 | 239 | 0.0 | 0.0 | 0.00 | 0.02 | 0.02 | 96 | 1010.7 |
| 20260504191516 | 53 | 28 | 0.0 | 0.0 | 0.01 | 0.02 | 0.02 | 96 | 1010.7 |
| 20260504190015 | 53 | 275 | 0.0 | 0.0 | 0.01 | 0.02 | 0.02 | 96 | 1010.4 |
| 20260504184515 | 53 | 143 | 0.0 | 0.0 | 0.01 | 0.02 | 0.02 | 96 | 1010.8 |
| 20260504183014 | 53 | 171 | 0.0 | 0.9 | 0.01 | 0.02 | 0.02 | 96 | 1010.7 |
| 20260504181513 | 53 | 313 | 0.0 | 0.9 | 0.00 | 0.01 | 0.01 | 95 | 1010.9 |
| 20260504180011 | 53 | 113 | 0.0 | 0.0 | 0.00 | 0.01 | 0.01 | 96 | 1010.8 |
| 20260504174508 | 52 | 157 | 0.0 | 0.0 | 0.01 | 0.01 | 0.01 | 96 | 1010.5 |
| 20260504173007 | 52 | 155 | 0.0 | 0.0 | 0.01 | 0.01 | 0.01 | 96 | 1010.6 |
| 20260504171520 | 52 | 24 | 0.0 | 0.0 | 0.01 | 0.01 | 0.01 | 96 | 1010.6 |